This demonstration page uses our WeatherBlox Daily Observations layout. Learn more.

Left ArrowRight Arrow

38.83388, -104.82136

Hourly Observations for January 22, 2022

Temp ( °F °C ) Dew Point ( °F °C ) Humidity (%) Winds ( mph kmh ) Pressure ( in mb ) Visibility ( mi km ) Precip ( " mm )
12:23 am 00:23 Cloudy with Light Snow 27 -3 23 -5 86 86 W 9 15 30.06 1018 4 6 0.00 0.00
12:58 am 00:58 Cloudy with Light Snow 25 -3.8 23 -4.9 92 92 WNW 8 13 30.11 1020 9 14 0.00 0.00
1:58 am 01:58 Cloudy with Light Snow 25 -4.1 22 -5.5 90 90 WSW 6 9 30.11 1020 9 14 0.00 0.00
2:23 am 02:23 Cloudy with Light Snow 25 -4 21 -6 86 86 W 6 9 30.11 1020 9 14 0.00 0.00
2:58 am 02:58 Cloudy with Light Snow 25 -3.8 21 -6 85 85 W 6 9 30.11 1020 9 14 0.00 0.00
3:39 am 03:39 Cloudy 25 -4 21 -6 86 86 WSW 3 6 30.11 1020 9 14 0.00 0.00
3:44 am 03:44 Cloudy 25 -4 21 -6 86 86 E 5 7 30.11 1020 9 14 0.00 0.00
3:45 am 03:45 Cloudy with Light Snow 25 -4 21 -6 86 86 E 6 9 30.10 1019 9 14 0.00 0.00
3:58 am 03:58 Cloudy with Light Snow 25 -4.1 22 -5.5 90 90 E 5 7 30.11 1020 9 14 0.00 0.00
4:25 am 04:25 Cloudy 25 -4 23 -5 93 93 ESE 5 7 30.11 1020 9 14 0.00 0.00
4:28 am 04:28 Cloudy with Light Snow 25 -4 23 -5 93 93 ESE 7 11 30.11 1020 9 14 0.00 0.00
4:58 am 04:58 Cloudy with Light Snow 24 -4.3 23 -5.1 94 94 ESE 10 17 30.11 1020 8 13 0.00 0.00
5:03 am 05:03 Cloudy with Light Snow 25 -4 23 -5 93 93 ESE 10 17 30.11 1020 6 10 0.00 0.00
5:23 am 05:23 Cloudy with Light Snow 25 -4 23 -5 93 93 E 10 17 30.10 1019 9 14 0.00 0.00
5:58 am 05:58 Cloudy with Light Snow 24 -4.2 21 -5.9 88 88 ESE 7 11 30.11 1020 9 14 0.00 0.00
6:38 am 06:38 Cloudy with Light Snow 25 -4 19 -7 80 80 E 13 20 30.09 1019 9 14 0.00 0.00
9:33 am 09:33 Partly Cloudy 27 -3 21 -6 80 80 NNW 5 7 30.08 1019 10 16 0.00 0.00
9:58 am 09:58 Sunny 28 -2.2 23 -5.2 80 80 N 5 7 30.06 1018 10 16 0.00 0.00
10:58 am 10:58 Sunny 30 -1 23 -5.1 74 74 WNW 6 9 30.06 1018 10 16 0.00 0.00
11:58 am 11:58 Sunny 31 -0.4 23 -5.2 70 70 WNW 10 17 30.01 1016 10 16 0.00 0.00
12:58 pm 12:58 Sunny 33 0.8 24 -4.2 70 70 NW 10 17 29.98 1015 10 16 0.00 0.00
1:58 pm 13:58 Sunny 34 1.1 24 -4.3 68 68 WSW 3 6 29.97 1015 10 16 0.00 0.00
2:58 pm 14:58 Sunny 34 1.1 24 -4.2 68 68 SSW 3 6 29.96 1015 10 16 0.00 0.00
3:58 pm 15:58 Sunny 33 0.4 25 -4.1 72 72 Calm 29.99 1016 10 16 0.00 0.00
4:58 pm 16:58 Sunny 32 0 25 -3.7 76 76 WSW 6 9 30.00 1016 10 16 0.00 0.00
5:58 pm 17:58 Clear 33 0.3 24 -4.3 72 72 WSW 8 13 30.00 1016 10 16 0.00 0.00
6:58 pm 18:58 Clear 34 0.9 23 -4.9 66 66 W 7 11 30.04 1017 10 16 0.00 0.00
7:58 pm 19:58 Clear 35 1.7 21 -5.9 57 57 W 8 13 30.03 1017 10 16 0.00 0.00
8:58 pm 20:58 Clear 33 0.5 21 -5.9 63 63 W 7 11 30.04 1017 10 16 0.00 0.00
9:58 pm 21:58 Clear 31 -0.4 21 -6.2 65 65 WSW 6 9 30.04 1017 10 16 0.00 0.00
10:58 pm 22:58 Clear 31 -0.7 21 -6.1 67 67 Calm 30.05 1018 10 16 0.00 0.00
11:58 pm 23:58 Clear 33 0.6 21 -6.3 60 60 SE 3 6 30.02 1017 10 16 0.00 0.00

Powered by AerisWeather